Other Public Products
Issued by NWS Charleston, SC

Current Version | Previous Version | Graphics & Text | Print | Product List | Glossary On
Versions: 1 2
766
FPUS82 KCHS 110013
OPUCHS

TEST...Regional Weather Roundup...TEST
National Weather Service Charleston SC
700 PM EST WED FEB 10 2016

NOTE: "fair" indicates few or no clouds below 12,000 feet with no
significatn weather and/or obstructions to visibility.


SCZ027-030-031-034>040-042>050-110100-
...Southeast South Carolina...

CITY           SKY/WX    TMP DP  RH WIND       PRES   REMARKS
N Charleston   CLEAR     38  10  31 W9G18     30.10R WCI  31
6HR MIN TEMP:  38; 6HR MAX TEMP:  44;

Waterfront Prk   N/A     39  14  36 W5        29.93R WCI  36
Mount Pleasant FAIR      39  12  33 W7        30.09R WCI  34
Johns Island   FAIR      37  14  38 W6        30.11R WCI  33
Pinopolis        N/A     39  16  38 W13       29.99R WCI  32
Moncks Corner  FAIR      34   7  32 W3        30.09R
Summerville    NOT AVBL
Beaufort MCAS  CLEAR     39  13  34 W10       30.14R WCI  32
6HR MIN TEMP:  38; 6HR MAX TEMP:  45;

Beaufort Arpt  FAIR      39  12  33 W12G18    30.13R WCI  32
Hilton Head Is CLEAR     41  16  36 W7G16     30.15R
Walterboro     CLEAR     39  12  33 W9        30.12R WCI  33
Allendale      FAIR      37  12  35 CALM      30.12R

...Southern Midlands and Pee Dee...

CITY           SKY/WX    TMP DP  RH WIND       PRES   REMARKS
Georgetown     NOT AVBL
Kingstree      NOT AVBL
Orangeburg     CLEAR     36   9  32 W12       30.09R WCI  28
6HR MIN TEMP:  36; 6HR MAX TEMP:  41;

Barnwell       FAIR      37  12  35 W8        30.12R WCI  31
Aiken          FAIR      32  10  40 W8        30.12R WCI  25
Manning        FAIR      36   9  32 W3        30.08R
Columbia       PTCLDY    35   8  32 W12       30.08R WCI  27
6HR MIN TEMP:  35; 6HR MAX TEMP:  41;

Sumter         CLEAR     33   9  36 W7        30.04R WCI  27
6HR MIN TEMP:  33; 6HR MAX TEMP:  40;

Florence       CLEAR     35  11  36 W13       30.04R WCI  26
6HR MIN TEMP:  35; 6HR MAX TEMP:  39;

Myrtle Beach   CLEAR     37  14  38 W12       30.06R WCI  30
N Myrtle Beach CLEAR     36  16  44 W6        30.03R WCI  31
6HR MIN TEMP:  36; 6HR MAX TEMP:  41;


$$

GAZ063-065-086>088-099>101-113>116-118-119-134>141-150-110100-
...Southeast Georgia...

CITY           SKY/WX    TMP DP  RH WIND       PRES   REMARKS
Savannah Arpt  CLEAR     36  15  42 W8        30.16R WCI  30
6HR MIN TEMP:  36; 6HR MAX TEMP:  45;

Hunter AAF     CLEAR     38  16  39 W7        30.13R WCI  33
6HR MIN TEMP:  38; 6HR MAX TEMP:  45;

Fort Stewart   CLEAR     39  15  37 W3        30.15R
6HR MIN TEMP:  39; 6HR MAX TEMP:  44;

Statesboro     CLEAR     42   5  21 W6        30.15R
Sylvania       CLEAR     38  19  45 W6        30.14S WCI  34
Claxton        FAIR      40  19  43 SW5       30.17R WCI  36

...CSRA, Central and Far Southeast Georgia...

CITY           SKY/WX    TMP DP  RH WIND       PRES   REMARKS
Thomson        CLEAR     36  14  40 W6        30.16R WCI  31
Augusta-Bush   CLEAR     35  10  35 W6        30.12R WCI  30
6HR MIN TEMP:  35; 6HR MAX TEMP:  41;

Augusta-Daniel NOT AVBL
Swainsboro     FAIR      37  14  38 W5        30.15S WCI  34
Vidalia        CLEAR     39  18  41 W6        30.16R WCI  35
Eastman        FAIR      40  14  35 CALM      30.19S
Hazlehurst     FAIR      40  17  40 CALM      30.17R
Alma           CLEAR     39  17  41 W5        30.18R WCI  36
6HR MIN TEMP:  39; 6HR MAX TEMP:  45;

Waycross       CLEAR     42  21  43 W5        30.20R
Jesup          FAIR      43  21  42 W3        30.18S
Baxley         FAIR      41  18  38 W3        30.18R
Brunswick      CLEAR     43  19  39 W7        30.20R
Saint Simons   CLEAR     42  17  36 W8        30.19R
6HR MIN TEMP:  42; 6HR MAX TEMP:  47;


$$

SCZ027-028-034-036>038-045-046-048>050-GAZ119-141-110100-
...Lake and Supplemental Coastal Observations...

STATION/POSITION TIME  TEMP    WIND        PRES    WAVE   SWELL
                       AIR SEA DIR/SP/G            HT/PER HT/PER/DIR
                 (UTC) (F)     (DEG/KT/KT) (MB)    (FT/S) (FT/S/D)
Winyah Bay       NOT AVBL
Lake Murray      2300   37     270/ 15/ 21 1016.9R
Ace Basin NERRS  2245   40     280/  5     1019.0
Fort Pulaski     2300   42 50              1020.3
Sapelo Island    2300   44     260/ 17     1021.0R

$$

ANZ835-935-AMZ111-154-330-350-352-354-370-450-454-472-110100-
...C-MAN and Buoy Observations...

STATION/POSITION TIME  TEMP    WIND        PRES    WAVE   SWELL
                       AIR SEA DIR/SP/G            HT/PER HT/PER/DIR
                 (UTC) (F)     (DEG/KT/KT) (MB)    (FT/S) (FT/S/D)
Buoy 41004       2350   45 63  280/ 25/ 33 1017.3R   7/ 7   2/14
Buoy 41008       2350   44 53  280/ 21/ 27 1021.5R   4/ 5
Folly Beach CMAN 0000   37     270/  6/  9 1019.6R
Capers Nearshore 2308   42     290/ 21/ 29 1017.1R
Fripp Nearshore  2300   43     290/ 25/ 29 1018.8R


STATION/POSITION TIME  TEMP    WIND        PRES    WAVE   SWELL
                       AIR SEA DIR/SP/G            HT/PER HT/PER/DIR
                 (UTC) (F)     (DEG/KT/KT) (MB)    (FT/S) (FT/S/D)
5E St. Marys GA  2351      55                N/A     3/14   2/ 90/14
Frying Pan Buoy  0000   43 60  280/ 25/ 31 1016.4R
Buoy 41025       2350   44 72  300/ 19/ 27 1012.3R   5/14   3/ 80/14
Cape Lookout NC  NOT AVBL
Buoy 41002       2350   56 68  270/ 33/ 43   N/A    16/10
Buoy 41010       2320   60 72              1020.2R
St Augustine FL  0000   47 56  300/  7/  9 1023.4R


$$




USA.gov is the U.S. government's official web portal to all federal, state and local government web resources and services.